Left ArrowRight Arrow

38.83388, -104.82136

Hourly Observations for September 28, 2018

Temp ( °F °C ) Dew Point ( °F °C ) Humidity (%) Winds ( mph kmh ) Pressure ( in mb ) Visibility ( mi km ) Precip ( " mm )
12:58 am 00:58 Clear 55 13 20 -6.9 25 25 Calm 29.80 1009 10 16 0.00 0.00
1:58 am 01:58 Clear 55 12.8 20 -6.5 26 26 NW 8 13 29.80 1009 10 16 0.00 0.00
2:58 am 02:58 Clear 56 13.1 20 -6.8 25 25 NNW 7 11 29.59 1002 10 16 0.00 0.00
3:58 am 03:58 Clear 54 12.3 20 -6.7 26 26 NNW 10 17 29.59 1002 10 16 0.00 0.00
4:58 am 04:58 Clear 48 8.9 22 -5.6 36 36 NNW 10 17 29.63 1004 10 16 0.00 0.00
5:58 am 05:58 Clear 50 10.1 22 -5.5 33 33 NW 9 15 29.65 1004 10 16 0.00 0.00
6:58 am 06:58 Sunny 52 11.2 21 -6.1 29 29 Calm 29.67 1005 10 16 0.00 0.00
7:58 am 07:58 Sunny 49 9.7 24 -4.6 36 36 Calm 29.72 1007 10 16 0.00 0.00
8:58 am 08:58 Sunny 49 9.2 29 -1.7 47 47 ESE 9 15 29.77 1008 10 16 0.00 0.00
9:58 am 09:58 Sunny 51 10.6 32 0.1 49 49 SE 13 20 29.76 1008 10 16 0.00 0.00
10:58 am 10:58 Sunny 48 8.8 34 1.1 59 59 SSE 20 31 29.78 1008 10 16 0.00 0.00
11:58 am 11:58 Sunny 52 11.3 35 1.9 53 53 SE 16 26 29.79 1009 10 16 0.00 0.00
12:58 pm 12:58 Sunny 52 11.3 36 2.2 54 54 SSE 22 35 29.77 1008 10 16 0.00 0.00
1:58 pm 13:58 Sunny 53 11.9 37 2.5 53 53 SE 15 24 29.76 1008 10 16 0.00 0.00
2:58 pm 14:58 Sunny 52 11.2 37 2.6 56 56 SE 22 35 29.74 1007 10 16 0.00 0.00
3:58 pm 15:58 Sunny 50 10.1 37 2.7 60 60 SSE 18 30 29.76 1008 10 16 0.00 0.00
4:58 pm 16:58 Mostly Sunny 47 8.3 36 2.4 67 67 SSE 18 30 29.80 1009 10 16 0.00 0.00
5:08 pm 17:08 Mostly Cloudy 46 8 37 3 71 71 SSE 16 26 29.80 1009 10 16 0.00 0.00
5:33 pm 17:33 Mostly Cloudy 45 7 37 3 76 76 SSE 20 31 29.80 1009 10 16 0.00 0.00
5:58 pm 17:58 Cloudy 43 5.9 37 3 82 82 SSE 16 26 29.83 1010 10 16 0.00 0.00
6:03 pm 18:03 Cloudy 43 6 37 3 81 81 SSE 18 30 29.83 1010 10 16 0.00 0.00
6:53 pm 18:53 Cloudy 41 5 37 3 87 87 SSE 15 24 29.84 1011 10 16 0.00 0.00
6:58 pm 18:58 Cloudy 41 5 38 3.1 88 88 SSE 14 22 29.84 1011 10 16 0.00 0.00
7:08 pm 19:08 Cloudy 41 5 37 3 87 87 SE 15 24 29.84 1011 10 16 0.00 0.00
7:58 pm 19:58 Mostly Cloudy 40 4.2 38 3.5 95 95 SSE 17 28 29.85 1011 9 14 0.00 0.00

Powered by Vaisala Xweather